Temp
-12 -12 -11 -12 -11 -11 -11 -11 -11 -11 -10 -10 -10 -10 -10 -11 -10 -11 -11 -10 -11 -11 -11 -10 -10 -10 -11 -11 -11 -11 -11 -11 -11 -11 -11 -11 -11 -11 -11 -11 -11 -11 -11 -11
-12 -12 -12 -12 -11 -11 -11 -11 -11 -11 -11 -10 -10 -11 -11 -11 -11 -11 -11 -11 -11 -11 -11 -11 -11 -11 -11 -11 -11 -11 -11 -11 -11 -11 -11 -11 -11 -11 -11 -11 -11 -11 -11 -11
-12 -12 -12 -12 -12 -11 -11 -11 -11 -11 -11 -11 -11 -11 -11 -11 -11 -11 -11 -11 -11 -11 -11 -11 -11 -11 -11 -11 -11 -11 -11 -11 -11 -11 -11 -11 -11 -11 -11 -11 -11 -11 -11 -11
-13 -12 -12 -12 -12 -12 -11 -11 -11 -11 -11 -11 -11 -10 -11 -11 -11 -11 -11 -11 -11 -11 -11 -11 -11 -11 -11 -11 -11 -11 -11 -11 -11 -11 -11 -11 -11 -11 -11 -11 -11 -11 -11 -11
-12 -12 -12 -12 -12 -12 -12 -12 -11 -11 -11 -11 -11 -11 -11 -11 -11 -11 -11 -11 -11 -11 -11 -11 -11 -11 -11 -11 -11 -11 -11 -11 -11 -11 -11 -11 -12 -11 -11 -11 -12 -12 -12 -12
-13 -13 -13 -12 -12 -12 -12 -12 -12 -11 -11 -11 -11 -11 -10 -11 -11 -11 -11 -11 -11 -11 -11 -11 -11 -11 -11 -11 -11 -11 -11 -11 -11 -11 -11 -11 -12 -12 -12 -12 -12 -12 -12 -12
-13 -13 -13 -13 -13 -12 -12 -12 -12 -12 -11 -11 -11 -11 -11 -11 -11 -11 -11 -11 -11 -11 -11 -11 -11 -11 -11 -11 -11 -11 -12 -12 -12 -12 -12 -12 -12 -12 -12 -12 -12 -12 -12 -12
-14 -13 -13 -13 -13 -13 -13 -13 -13 -12 -12 -11 -11 -11 -11 -11 -11 -11 -11 -11 -12 -12 -11 -11 -11 -11 -11 -11 -12 -12 -12 -12 -12 -12 -12 -12 -12 -12 -12 -12 -12 -12 -12 -12
-14 -14 -14 -14 -14 -14 -13 -13 -13 -13 -12 -12 -11 -11 -11 -11 -11 -11 -11 -11 -11 -11 -11 -12 -12 -12 -12 -12 -12 -12 -12 -12 -12 -12 -12 -12 -12 -12 -12 -13 -13 -13 -13 -13
-14 -14 -14 -14 -14 -14 -13 -13 -13 -13 -12 -12 -11 -11 -11 -11 -11 -11 -11 -11 -11 -11 -11 -12 -12 -12 -12 -12 -12 -12 -12 -12 -13 -12 -12 -12 -12 -13 -13 -13 -14 -13 -13 -14
-16 -16 -15 -15 -14 -14 -14 -13 -13 -13 -13 -12 -12 -12 -11 -11 -11 -12 -12 -12 -12 -11 -11 -12 -12 -12 -12 -12 -12 -12 -13 -13 -13 -13 -13 -13 -13 -13 -13 -14 -14 -14 -14 -14
-15 -15 -15 -15 -15 -15 -14 -14 -13 -13 -13 -13 -13 -13 -12 -12 -12 -12 -12 -12 -12 -13 -13 -13 -13 -13 -13 -13 -13 -13 -13 -13 -13 -13 -13 -14 -14 -14 -14 -14 -15 -15 -15 -15
-15 -15 -15 -15 -15 -15 -14 -14 -14 -14 -14 -13 -13 -12 -12 -13 -12 -13 -13 -13 -13 -13 -13 -13 -14 -13 -13 -13 -13 -13 -13 -13 -14 -14 -14 -14 -14 -15 -15 -15 -15 -16 -16 -16
-16 -16 -15 -15 -14 -15 -14 -14 -14 -14 -14 -13 -13 -13 -13 -13 -14 -14 -14 -14 -14 -14 -14 -14 -14 -14 -14 -14 -14 -14 -14 -14 -14 -14 -14 -14 -15 -15 -15 -16 -16 -16 -16 -16
-17 -16 -15 -15 -15 -15 -15 -15 -15 -15 -15 -15 -13 -14 -14 -15 -15 -15 -14 -14 -15 -15 -15 -15 -15 -15 -15 -16 -16 -16 -16 -16 -16 -16 -16 -15 -15 -15 -16 -16 -16 -16 -16 -16
-17 -17 -17 -16 -16 -16 -15 -16 -16 -15 -15 -15 -14 -14 -15 -16 -16 -15 -15 -15 -15 -16 -16 -16 -16 -16 -16 -16 -16 -16 -16 -16 -16 -17 -17 -17 -17 -17 -17 -16 -16 -16 -16 -16
-18 -18 -17 -17 -17 -17 -17 -15 -16 -16 -16 -16 -15 -15 -16 -17 -17 -17 -17 -16 -16 -16 -17 -17 -16 -16 -16 -16 -16 -17 -17 -17 -17 -18 -18 -18 -18 -17 -17 -17 -17 -17 -17 -17
-18 -18 -18 -18 -18 -18 -16 -16 -16 -16 -17 -16 -16 -16 -16 -17 -18 -18 -18 -18 -17 -17 -17 -17 -17 -17 -17 -17 -17 -18 -18 -18 -18 -18 -18 -18 -18 -18 -17 -17 -17 -17 -17 -17
-18 -18 -19 -18 -18 -18 -17 -16 -17 -17 -17 -17 -17 -17 -17 -18 -18 -18 -18 -18 -18 -17 -17 -17 -17 -17 -17 -17 -18 -18 -18 -18 -18 -18 -18 -18 -18 -17 -17 -17 -17 -18 -18 -18
-18 -19 -19 -19 -19 -18 -17 -17 -17 -17 -17 -17 -18 -18 -19 -18 -18 -18 -18 -18 -18 -18 -18 -17 -17 -17 -17 -17 -17 -17 -18 -18 -18 -18 -18 -18 -17 -17 -17 -17 -18 -18 -18 -18
-19 -19 -19 -19 -19 -18 -18 -18 -18 -18 -17 -19 -19 -19 -19 -19 -19 -19 -18 -18 -18 -18 -18 -18 -18 -18 -18 -18 -18 -18 -18 -18 -18 -18 -18 -18 -18 -18 -18 -18 -19 -19 -19 -18
-19 -19 -19 -19 -20 -19 -19 -19 -19 -19 -19 -19 -19 -19 -19 -19 -19 -19 -19 -19 -19 -19 -19 -19 -19 -19 -19 -19 -19 -19 -19 -19 -19 -20 -20 -20 -20 -20 -20 -20 -20 -20 -20 -20
-20 -20 -20 -20 -19 -19 -19 -19 -19 -19 -19 -19 -19 -19 -19 -20 -20 -20 -20 -20 -20 -20 -20 -20 -20 -20 -21 -21 -21 -21 -21 -21 -21 -21 -21 -21 -21 -21 -21 -21 -21 -21 -21 -20
-21 -21 -21 -21 -21 -21 -21 -20 -21 -21 -21 -21 -21 -21 -21 -21 -21 -22 -22 -22 -22 -22 -22 -22 -22 -22 -22 -22 -22 -22 -22 -22 -21 -21 -22 -22 -22 -22 -22 -22 -22 -22 -22 -22
-22 -22 -22 -22 -22 -22 -22 -22 -22 -22 -22 -22 -22 -22 -22 -22 -22 -22 -22 -22 -22 -23 -23 -23 -22 -22 -22 -22 -22 -22 -22 -22 -22 -22 -22 -22 -22 -22 -22 -22 -22 -23 -23 -23
-22 -22 -23 -23 -23 -24 -23 -23 -23 -23 -23 -23 -23 -23 -22 -23 -23 -23 -23 -23 -23 -23 -23 -23 -23 -23 -23 -23 -23 -23 -23 -23 -23 -23 -23 -23 -23 -23 -23 -23 -23 -24 -24 -24
Height
5782 5788 5795 5802 5805 5808 5811 5815 5819 5823 5827 5830 5833 5835 5837 5840 5844 5846 5848 5850 5851 5851 5852 5854 5855 5857 5859 5859 5859 5860 5861 5860 5861 5860 5860 5860 5859 5859 5858 5857 5856 5854 5852 5851
5777 5784 5789 5791 5797 5801 5806 5811 5816 5818 5821 5824 5827 5831 5832 5835 5839 5841 5843 5843 5845 5847 5847 5849 5852 5853 5854 5855 5855 5855 5855 5856 5857 5857 5857 5857 5856 5855 5854 5852 5850 5849 5848 5846
5773 5781 5783 5787 5793 5798 5802 5806 5810 5813 5815 5819 5822 5826 5828 5829 5833 5834 5835 5837 5840 5841 5842 5844 5846 5848 5849 5849 5850 5850 5850 5851 5852 5852 5852 5852 5852 5851 5849 5847 5845 5844 5841 5840
5765 5771 5776 5782 5787 5792 5797 5800 5803 5806 5811 5813 5816 5820 5824 5825 5826 5826 5829 5832 5833 5835 5836 5838 5840 5842 5843 5844 5844 5845 5845 5846 5846 5846 5846 5845 5845 5845 5843 5841 5838 5837 5835 5833
5763 5765 5772 5777 5782 5785 5790 5793 5797 5800 5803 5807 5811 5812 5820 5819 5819 5820 5823 5825 5827 5828 5830 5831 5833 5835 5837 5838 5838 5838 5839 5839 5839 5839 5839 5838 5838 5836 5835 5834 5832 5830 5827 5825
5752 5758 5764 5770 5773 5777 5782 5786 5789 5792 5796 5800 5804 5806 5812 5813 5814 5814 5816 5818 5819 5821 5823 5825 5826 5827 5828 5830 5831 5832 5832 5831 5831 5831 5832 5831 5829 5828 5827 5825 5823 5821 5819 5816
5746 5753 5759 5762 5766 5770 5775 5779 5782 5786 5788 5793 5797 5800 5804 5804 5808 5809 5810 5811 5813 5815 5816 5818 5818 5819 5821 5822 5824 5825 5825 5824 5824 5823 5823 5822 5821 5820 5818 5816 5815 5812 5809 5807
5741 5747 5752 5757 5762 5766 5769 5773 5776 5778 5781 5786 5788 5791 5793 5797 5800 5802 5804 5805 5807 5807 5808 5809 5811 5812 5813 5814 5815 5816 5816 5816 5815 5814 5814 5812 5811 5809 5808 5806 5804 5801 5799 5795
5733 5737 5743 5748 5752 5755 5761 5765 5770 5771 5774 5777 5780 5785 5787 5788 5791 5794 5797 5799 5801 5801 5801 5802 5803 5804 5805 5806 5806 5806 5806 5806 5806 5804 5803 5802 5800 5798 5796 5794 5792 5789 5786 5784
5723 5727 5734 5737 5742 5745 5752 5758 5759 5762 5766 5770 5773 5776 5778 5780 5782 5784 5787 5789 5791 5792 5793 5794 5795 5795 5795 5795 5795 5795 5795 5795 5794 5793 5792 5790 5789 5787 5784 5782 5780 5778 5775 5772
5712 5719 5724 5726 5732 5738 5744 5747 5751 5755 5759 5762 5765 5767 5769 5772 5774 5774 5775 5777 5779 5781 5783 5783 5783 5784 5785 5785 5785 5784 5784 5784 5782 5780 5779 5777 5776 5774 5772 5769 5766 5764 5761 5758
5705 5707 5710 5718 5722 5727 5732 5737 5740 5741 5748 5751 5754 5759 5760 5760 5762 5764 5765 5765 5767 5767 5769 5772 5773 5773 5773 5773 5773 5772 5772 5771 5769 5767 5765 5763 5762 5760 5758 5755 5753 5751 5749 5745
5693 5694 5698 5704 5711 5715 5719 5726 5730 5734 5737 5743 5745 5752 5750 5750 5751 5752 5753 5754 5755 5755 5756 5756 5756 5757 5759 5761 5760 5760 5758 5757 5755 5753 5751 5749 5747 5745 5743 5741 5738 5735 5733 5730
5676 5681 5686 5695 5704 5709 5713 5718 5720 5721 5723 5733 5736 5739 5740 5741 5740 5740 5740 5742 5742 5742 5742 5742 5743 5743 5743 5744 5744 5744 5743 5742 5741 5739 5738 5736 5734 5731 5729 5726 5723 5721 5717 5715
5664 5671 5677 5682 5687 5691 5698 5702 5706 5707 5716 5715 5728 5725 5728 5728 5723 5725 5727 5728 5728 5728 5729 5730 5730 5731 5730 5729 5728 5727 5727 5726 5726 5724 5723 5721 5718 5715 5712 5710 5706 5704 5701 5699
5654 5659 5666 5668 5673 5677 5682 5688 5693 5697 5702 5706 5713 5716 5718 5714 5712 5713 5715 5715 5715 5714 5715 5716 5717 5717 5717 5717 5716 5714 5712 5710 5708 5705 5704 5703 5701 5698 5696 5693 5691 5688 5686 5683
5642 5648 5653 5656 5661 5665 5667 5680 5683 5687 5691 5694 5697 5707 5703 5701 5702 5702 5702 5703 5704 5703 5703 5703 5702 5702 5701 5700 5700 5697 5696 5694 5692 5690 5687 5685 5683 5681 5679 5676 5674 5671 5668 5664
5632 5637 5642 5645 5648 5646 5662 5666 5669 5673 5677 5681 5685 5688 5688 5687 5687 5691 5692 5692 5692 5691 5690 5690 5689 5687 5686 5686 5685 5682 5680 5679 5677 5675 5672 5669 5667 5665 5662 5658 5654 5651 5648 5644
5621 5626 5630 5632 5635 5640 5648 5654 5657 5659 5667 5670 5671 5671 5672 5673 5674 5677 5678 5679 5680 5679 5678 5677 5675 5673 5671 5671 5670 5667 5664 5662 5659 5658 5654 5651 5647 5645 5642 5638 5634 5629 5626 5621
5609 5614 5618 5621 5623 5628 5640 5644 5645 5648 5654 5658 5657 5658 5660 5660 5661 5662 5661 5663 5664 5664 5664 5663 5661 5659 5656 5654 5653 5649 5645 5641 5640 5637 5634 5628 5624 5621 5619 5616 5612 5608 5603 5601
5599 5601 5605 5610 5611 5619 5629 5631 5632 5636 5650 5641 5644 5644 5645 5646 5647 5647 5646 5647 5647 5646 5645 5645 5643 5640 5637 5634 5633 5629 5625 5621 5619 5615 5611 5607 5602 5598 5594 5593 5587 5584 5580 5576
5587 5590 5594 5597 5597 5609 5616 5617 5622 5627 5627 5627 5627 5628 5628 5630 5630 5631 5630 5629 5629 5629 5627 5625 5624 5621 5617 5613 5612 5609 5603 5600 5597 5594 5589 5584 5579 5574 5569 5567 5563 5558 5554 5550
5571 5575 5581 5586 5589 5596 5597 5600 5602 5606 5608 5609 5611 5612 5613 5614 5614 5614 5613 5612 5611 5609 5608 5606 5604 5602 5598 5593 5589 5586 5580 5577 5574 5570 5566 5560 5556 5551 5545 5543 5538 5534 5529 5525
5555 5562 5565 5570 5576 5579 5581 5582 5585 5587 5589 5592 5594 5595 5597 5599 5598 5597 5596 5595 5593 5591 5588 5586 5584 5582 5580 5574 5570 5563 5557 5553 5551 5548 5543 5536 5531 5528 5523 5517 5512 5509 5504 5500
5542 5547 5552 5554 5558 5562 5563 5567 5569 5572 5573 5576 5578 5580 5582 5584 5583 5582 5580 5577 5575 5572 5569 5566 5562 5561 5558 5555 5551 5542 5533 5528 5527 5524 5520 5514 5508 5503 5499 5493 5488 5484 5480 5476
5534 5540 5541 5545 5547 5546 5549 5550 5553 5555 5557 5559 5562 5563 5563 5563 5563 5563 5562 5559 5556 5552 5547 5544 5540 5537 5535 5531 5528 5521 5510 5504 5501 5499 5494 5489 5484 5480 5474 5469 5467 5458 5457 5453
Wind_Speed
42 41 38 32 35 35 36 34 32 31 30 29 28 27 27 26 23 25 22 22 21 21 22 20 21 22 20 20 21 21 19 20 18 18 18 17 17 17 18 19 20 21 21 21
42 39 37 39 39 39 37 34 33 32 31 31 29 26 28 28 26 26 26 27 25 25 26 24 22 22 23 23 24 22 24 22 21 20 21 19 21 21 22 23 23 24 25 26
39 37 38 39 38 37 36 34 33 33 32 31 29 25 26 28 26 27 29 30 28 27 28 26 25 26 25 26 27 27 26 25 25 24 23 24 24 25 27 28 29 29 29 30
42 40 39 39 38 37 36 35 35 35 34 33 30 28 26 27 27 28 30 29 30 30 30 30 29 27 29 30 30 30 30 29 29 29 28 29 29 29 31 32 33 34 36 36
41 36 39 39 39 39 38 36 37 37 36 35 31 33 26 27 29 31 30 31 31 32 32 32 32 31 32 33 35 34 34 34 34 35 34 34 34 35 36 37 37 38 39 41
43 43 43 42 41 41 40 39 39 38 38 36 33 33 28 28 28 30 31 31 32 32 33 34 34 35 35 36 36 37 38 39 39 40 39 40 40 41 41 43 43 43 44 46
45 46 44 42 41 43 41 41 39 39 39 38 35 34 32 31 29 28 30 32 32 33 32 34 36 39 39 39 39 40 42 43 44 44 44 44 45 46 48 48 49 50 51 52
42 43 41 40 41 39 38 39 38 40 40 40 39 37 37 33 32 32 31 31 32 34 35 36 36 38 41 42 42 43 44 46 47 48 48 48 49 51 52 53 53 54 54 54
50 48 45 44 43 42 41 42 41 40 40 41 41 39 38 37 35 34 33 33 34 35 37 38 39 40 42 44 45 47 48 48 49 49 50 52 53 54 55 55 55 54 54 55
53 55 54 48 47 47 44 44 44 44 43 43 42 41 42 42 41 40 39 37 37 37 37 39 41 42 45 46 47 48 50 51 51 53 54 55 56 54 53 54 56 57 57 55
57 56 61 55 52 48 49 50 49 47 47 47 47 47 48 46 45 44 44 44 44 44 44 44 44 44 44 45 46 46 47 49 51 53 52 53 53 53 54 54 55 56 55 54
60 63 60 62 54 52 53 53 53 53 52 52 51 50 51 52 51 50 50 51 51 50 48 48 48 49 49 50 51 53 53 54 54 54 54 54 54 55 55 55 54 54 54 54
59 61 60 62 64 64 62 58 57 55 55 54 54 54 56 57 57 56 55 55 55 56 57 56 56 56 56 55 56 57 57 57 57 58 59 59 58 56 55 57 57 58 58 58
61 62 64 63 62 60 61 62 61 58 59 58 57 56 58 57 58 59 58 59 60 59 59 60 61 60 59 59 58 58 59 59 59 60 60 60 59 59 59 60 62 64 65 65
60 63 63 65 66 66 63 62 61 62 60 62 58 58 58 59 61 62 63 62 62 62 62 63 62 60 58 57 57 58 59 60 60 61 62 64 66 65 65 64 62 60 59 58
63 61 59 59 60 61 63 62 61 62 62 61 59 57 55 57 58 59 59 60 60 61 62 61 60 60 61 62 63 64 64 64 63 63 62 61 60 59 59 60 62 63 63 63
55 57 59 61 62 61 62 61 58 57 57 56 58 54 53 53 53 56 60 60 61 61 61 62 62 62 61 60 60 59 59 60 60 60 61 62 63 64 66 67 68 70 72 73
51 50 52 54 54 57 57 56 55 55 54 54 52 50 52 54 55 55 57 59 61 62 62 61 60 61 61 62 62 62 63 63 64 66 67 69 70 71 73 75 76 77 77 78
51 50 54 54 52 54 54 54 52 51 49 49 50 52 54 56 57 58 57 58 59 61 62 63 64 64 66 67 68 70 72 73 74 75 76 78 79 80 81 81 81 81 81 79
57 58 56 55 57 56 53 54 55 54 53 50 52 52 52 54 56 58 60 61 63 64 65 67 68 71 73 74 75 77 78 79 80 83 85 87 88 88 87 87 85 83 83 83
55 59 58 57 64 61 60 57 56 57 53 55 55 56 57 59 62 65 67 68 69 71 73 74 75 76 77 78 79 80 82 83 84 84 85 86 86 85 86 86 86 87 87 88
62 60 60 61 60 61 59 59 60 60 62 64 66 68 69 70 71 71 71 70 70 71 72 74 75 76 78 79 80 81 81 83 83 83 83 84 85 85 86 87 88 89 90 90
69 65 66 66 69 68 72 71 71 70 70 70 71 70 69 68 68 68 69 70 71 72 72 73 73 74 74 76 78 79 81 82 83 84 85 86 87 88 90 91 92 93 94 93
61 63 61 62 63 62 63 67 66 63 61 62 64 63 63 62 63 63 63 64 66 67 69 71 73 75 76 78 81 84 86 88 89 89 90 92 93 94 94 94 93 92 90 88
57 54 59 58 58 56 57 58 59 58 59 59 59 60 61 61 62 63 65 68 70 72 75 77 79 81 82 84 85 88 91 93 93 93 94 95 96 95 94 92 91 89 87 85
58 56 55 53 53 56 57 59 59 60 61 61 62 64 66 67 68 69 69 71 72 74 76 77 79 81 82 84 85 86 89 91 91 90 90 91 91 90 89 88 84 83 80 77
Wind_Direction
212 212 214 216 219 220 223 224 229 234 236 238 238 242 246 247 246 249 246 247 246 253 258 254 250 245 239 241 248 252 254 259 267 275 275 278 283 288 291 291 293 295 300 302
214 215 216 218 220 223 225 228 232 236 239 242 244 244 251 250 247 249 250 248 248 248 255 255 258 252 246 247 248 249 253 261 267 273 273 276 280 284 286 289 291 294 297 298
215 215 218 221 223 226 229 230 232 236 240 244 246 244 248 252 249 247 248 251 249 250 254 256 254 253 252 248 247 250 256 263 268 273 275 277 280 283 287 286 291 293 294 297
215 214 220 222 224 226 230 231 235 237 241 245 247 248 248 252 253 249 251 250 252 251 253 255 255 252 250 253 256 257 260 264 268 271 274 275 281 284 283 286 288 290 293 295
221 220 224 226 227 229 231 232 235 238 240 243 247 253 241 248 250 255 253 253 252 252 252 255 257 255 251 251 254 258 264 267 269 271 273 277 279 280 283 286 287 287 288 291
218 222 223 223 226 230 231 232 235 237 241 245 247 253 249 243 246 252 254 256 256 256 256 257 257 258 257 255 255 258 262 265 268 270 272 275 278 281 283 284 285 287 289 290
220 222 224 225 227 228 231 234 237 239 240 245 245 248 253 248 243 246 250 255 258 259 258 258 260 260 259 260 261 263 265 267 269 271 273 276 278 280 281 283 285 286 287 287
228 228 231 233 234 235 237 239 242 243 243 244 246 246 248 253 252 250 247 248 251 254 259 262 263 262 262 262 264 265 267 268 271 273 275 277 277 278 279 281 281 280 280 281
234 238 234 236 238 237 237 240 243 245 246 246 247 248 253 256 257 258 255 256 257 258 259 259 260 263 264 265 267 268 268 269 270 271 273 274 276 277 277 278 279 280 280 282
234 241 240 240 240 240 240 241 243 245 247 249 251 252 254 257 260 262 264 263 262 260 259 261 262 263 263 263 263 265 266 267 268 269 271 273 275 276 278 280 282 283 284 283
237 242 236 242 242 244 245 245 247 249 250 253 254 255 258 259 261 264 268 270 269 268 268 267 266 266 266 266 267 268 269 270 272 274 275 275 276 276 277 278 278 279 281 281
238 237 238 239 247 247 247 246 246 246 248 251 254 256 259 261 263 264 265 266 268 270 270 271 273 272 272 273 274 275 275 275 275 275 276 277 278 278 278 278 278 279 279 280
237 238 239 239 241 241 246 248 249 251 252 254 256 258 259 263 266 269 271 273 274 275 275 275 275 274 273 273 273 274 276 276 277 278 279 280 280 279 280 281 282 283 283 282
235 237 239 243 247 248 247 249 253 252 251 254 256 259 261 262 264 265 266 269 271 273 274 276 277 280 281 280 278 277 277 277 277 277 278 278 279 280 280 280 281 281 282 283
235 238 240 243 244 244 244 244 246 249 252 253 254 255 259 262 264 265 266 268 270 272 273 274 276 277 279 280 281 281 281 280 280 279 278 279 280 281 282 282 282 282 283 284
238 239 241 242 244 246 247 247 248 251 253 256 258 260 262 261 264 266 267 268 269 271 273 276 277 277 277 277 278 278 279 281 282 283 283 283 282 281 282 282 284 286 286 286
240 240 241 245 247 250 250 251 253 255 257 259 259 261 260 260 260 262 264 266 269 271 273 275 276 278 279 280 279 279 279 280 280 281 282 282 283 284 286 287 288 289 290 289
240 243 244 244 245 247 250 249 251 251 251 253 256 259 261 262 263 264 265 266 268 270 272 275 277 278 279 280 281 282 281 280 278 278 279 281 283 284 287 288 288 288 288 287
238 236 238 240 242 246 246 246 249 252 254 256 257 259 260 262 265 267 268 267 267 269 271 272 274 277 280 281 282 282 281 281 280 281 282 283 284 284 285 287 287 287 287 287
239 237 236 241 240 245 244 249 253 256 258 261 261 261 263 264 265 266 267 269 271 272 273 275 277 278 280 281 281 281 281 281 282 282 282 282 283 283 284 284 284 284 284 284
225 221 234 237 236 246 249 249 252 255 260 262 263 264 264 265 268 269 271 272 273 274 274 275 276 277 278 278 279 279 280 280 280 280 281 281 282 283 284 284 284 284 284 285
225 232 230 229 240 236 238 245 251 258 261 262 263 264 265 267 268 270 270 270 271 271 272 273 274 275 276 277 278 278 279 280 281 282 283 284 285 285 285 285 285 285 286 287
248 247 248 248 252 255 258 262 261 261 261 262 262 263 264 266 267 268 270 272 273 274 275 276 277 278 279 280 280 280 281 281 282 283 283 284 284 284 284 285 285 286 286 287
248 250 251 253 254 255 256 258 259 260 260 261 263 264 265 267 269 270 272 274 276 277 278 278 279 279 280 281 282 283 283 283 283 283 283 283 284 285 286 287 287 287 287 287
244 245 250 250 253 254 255 257 259 261 262 262 263 265 268 270 271 272 274 276 276 277 278 279 279 279 280 280 280 281 282 282 282 283 283 284 284 285 286 286 286 287 287 287
244 249 251 255 254 255 256 258 259 262 264 268 270 271 271 272 274 274 275 276 277 278 278 279 280 280 281 281 282 283 284 285 287 287 286 285 285 284 284 284 285 287 287 288